SCP
0 0 0 0 0 -0 -0 -0 -0 -0 0 0 0 0 0 0 0 0 0 -0 0 -0 0 0 0 0 0 0 -0 0 0 0 0 -0 -0 -0 -0 0 0 0 0 0 -0 -0 -0
0 0 0 0 0 0 0 0 0 0 0 0 0 0 0 0 0 0 0 -0 0 0 0 0 0 0 0 0 0 0 0 0 0 0 0 0 -0 0 -0 0 0 -0 -0 -0 -0
0 0 0 0 0 0 0 0 0 0 0 0 0 0 0 0 0 0 0 -0 0 0 0 0 0 0 0 0 -0 -0 -0 0 0 0 -0 0 -0 -0 -0 0 -0 -0 -0 -0 -0
0 0 0 0 0 0 0 0 0 0 0 0 0 -0 0 0 0 0 0 0 0 0 0 0 0 0 0 0 -0 -0 -0 -0 -0 -0 -0 -0 -0 0 -0 0 -0 -0 -0 -0 -0
0 0 0 0 0 0 0 0 0 0 0 0 0 -0 0 0 0 -0 0 0 0 0 0 0 0 0 0 0 0 0 -0 0 -0 -0 -0 -0 -0 -0 0 -0 -0 -0 -0 -0 -0
0 0 0 0 0 0 0 0 0 0 0 0 0 0 0 0 0 0 0 0 0 0 0 0 0 0 0 0 0 0 0 0 0 -0 -0 -0 -0 -0 -0 -0 -0 -0 -0 -0 -0
0 0 0 0 0 0 0 0 0 0 0 0 0 0 0 0 0 0 0 0 0 0 0 -0 -0 0 0 0 0 0 0 0 -0 0 -0 -0 -0 0 0 0 -0 -0 -0 -0 -0
0 0 0 0 0 0 0 0 0 0 0 0 0 0 0 0 0 -0 0 0 0 0 0 0 0 0 0 0 0 0 0 0 0 -0 -0 0 0 0 0 -0 -0 -0 -0 -0 -0
0 0 0 0 0 0 0 0 0 0 0 0 0 0 0 0 0 -0 0 0 0 0 0 0 0 0 0 0 0 0 0 0 0 0 -0 0 0 0 0 -0 -0 -0 -0 -0 -0
0 0 0 0 0 0 0 0 0 0 0 0 0 0 0 0 0 0 -0 0 0 0 0 0 0 0 0 0 0 0 0 0 0 0 0 0 0 0 -0 -0 -0 -0 0 0 0
0 0 0 0 0 0 0 0 0 0 0 0 0 0 0 0 0 -0 0 0 0 0 0 0 0 0 0 0 0 0 0 0 0 0 0 0 -0 -0 0 -0 -0 0 -0 0 0
0 0 0 0 0 0 0 0 0 0 0 -0 0 0 0 0 0 0 0 0 0 0 0 0 0 0 0 0 0 0 0 0 0 0 0 -0 0 -0 -0 -0 -0 0 -0 -0 -0
0 0 0 0 -0 0 0 0 0 0 0 0 -0 -0 0 0 0 0 0 0 0 0 0 0 0 0 0 0 0 0 0 0 0 0 0 0 0 0 0 0 -0 0 0 -0 -0
0 0 0 -0 0 0 0 0 0 0 0 0 0 0 0 0 0 0 0 0 0 0 0 0 0 0 0 0 0 0 0 0 0 0 0 0 0 0 0 0 -0 0 -0 -0 -0
0 0 0 0 0 0 0 0 0 0 0 0 0 0 0 0 0 0 0 0 0 0 0 0 0 0 0 0 0 0 0 0 0 0 0 0 0 0 0 0 -0 0 -0 0 0
0 -0 -0 0 0 0 0 0 0 0 0 0 0 0 0 0 0 0 0 0 0 0 0 0 0 0 0 0 0 0 0 0 0 0 0 -0 0 0 0 -0 0 -0 -0 -0 0
-0 -0 -0 -0 -0 0 0 0 0 0 0 0 0 0 -0 -0 -0 0 0 0 0 0 0 0 0 0 0 0 0 0 0 0 0 0 0 0 0 0 0 0 0 -0 -0 -0 -0
-0 -0 -0 -0 -0 0 0 0 0 0 0 0 0 0 0 0 0 0 0 0 0 0 0 0 0 0 0 0 0 0 0 0 0 0 0 0 0 0 0 0 0 -0 -0 -0 -0
-0 -0 -0 -0 -0 0 0 0 0 0 0 0 0 0 0 0 0 0 0 0 0 0 0 0 0 0 0 0 0 0 0 0 0 0 0 0 0 0 0 0 0 0 0 -0 0
-0 -0 -0 0 -0 0 0 0 0 0 0 0 0 0 0 0 0 0 0 0 0 0 0 0 0 0 0 0 0 0 0 0 0 0 0 0 0 0 0 0 0 0 0 0 0
0 0 0 -0 0 0 0 0 0 0 0 0 0 0 0 0 0 0 0 0 0 0 0 0 0 0 0 0 0 0 0 0 0 0 0 0 0 -0 -0 -0 -0 -0 -0 0 0
0 0 0 0 0 0 0 0 0 0 0 0 0 0 0 0 0 0 0 0 0 0 0 0 0 0 0 -0 0 0 0 0 0 0 0 0 0 -0 -0 -0 0 0 0 0 0
0 0 0 0 0 -0 -0 -0 0 0 0 0 0 0 0 0 0 0 0 0 0 0 0 0 0 0 0 0 0 0 0 0 0 0 0 0 0 0 -0 -0 -0 0 0 0 0
0 0 -0 0 0 0 0 -0 -0 -0 -0 0 0 0 0 0 0 0 0 0 0 0 0 0 0 0 0 0 0 0 0 0 0 0 0 0 0 0 0 -0 0 0 0 0 0
0 -0 0 -0 0 0 -0 0 -0 -0 -0 -0 -0 -0 0 0 0 0 0 0 0 0 0 -0 0 0 0 0 0 0 0 0 0 0 0 0 0 0 0 0 0 0 0 0 0
0 -0 -0 0 -0 0 0 0 0 0 0 0 0 0 0 0 0 0 0 0 0 0 0 0 0 0 0 0 0 0 0 0 0 0 0 0 0 0 0 0 0 0 0 0 0
-0 -0 0 -0 -0 -0 -0 -0 -0 0 0 0 0 0 0 0 0 0 0 0 0 0 0 0 0 0 0 0 0 0 0 -0 -0 -0 0 0 0 0 0 0 0 0 0 0 0
Wind_Speed_500mb
39 39 38 37 36 35 35 35 30 30 29 26 25 28 29 29 25 31 31 17 31 15 32 29 22 30 21 22 28 11 5 4 1 3 4 15 9 17 14 26 26 13 57 86 88
43 42 40 40 38 36 36 34 32 30 30 31 28 28 29 30 31 38 20 26 38 24 28 28 28 39 17 17 13 20 8 12 16 20 9 24 19 22 9 32 22 16 62 83 84
43 42 43 42 40 39 37 35 31 31 31 28 28 25 26 25 28 8 5 23 36 31 24 24 21 26 22 25 19 14 13 17 24 11 28 28 23 37 16 20 28 68 71 83 73
43 42 42 42 44 42 38 37 32 30 30 25 24 24 22 16 5 7 11 5 18 24 27 30 34 12 13 14 31 9 28 35 40 28 35 22 20 11 23 9 40 90 98 91 74
44 43 43 42 42 42 40 36 32 32 29 22 20 17 15 9 14 4 8 7 21 29 33 39 34 20 8 18 39 17 38 46 50 43 50 37 11 7 22 21 42 63 72 83 70
47 47 45 44 42 41 38 33 31 33 25 19 16 15 11 7 2 2 11 7 9 29 37 44 32 36 13 31 18 25 32 38 33 54 54 41 21 6 15 31 62 63 68 71 55
49 50 48 47 43 41 37 30 29 26 17 14 10 11 15 19 6 6 13 14 3 12 35 47 42 10 8 16 36 36 14 17 10 43 28 49 13 13 22 26 61 67 65 60 68
49 51 52 48 45 40 34 26 24 24 14 9 5 6 13 6 15 25 18 23 18 13 19 35 34 28 22 22 19 7 8 9 13 8 42 19 17 19 33 52 66 67 64 52 71
52 53 50 47 42 36 28 23 19 17 10 6 5 11 13 10 8 7 17 18 17 16 12 14 15 18 15 5 10 13 2 9 17 13 39 15 11 20 17 48 68 71 71 64 62
52 51 49 42 37 31 17 19 15 15 10 8 12 13 6 8 14 10 9 18 26 16 20 15 12 3 7 8 6 5 6 8 9 12 4 9 17 26 57 34 40 59 35 57 62
50 48 46 39 29 22 8 8 7 5 15 17 9 18 16 10 5 8 8 16 11 19 7 11 7 8 16 11 12 7 4 15 27 23 9 13 36 45 36 50 48 52 68 72 62
47 47 46 37 19 8 8 14 13 12 17 30 39 44 35 26 6 12 14 8 6 8 6 7 8 15 11 12 14 13 11 19 23 10 6 17 28 43 40 47 66 74 85 81 78
49 49 44 25 3 6 6 11 18 17 5 25 23 25 25 21 6 19 22 5 4 9 11 11 18 16 15 14 15 13 11 15 21 21 1 29 11 23 23 27 45 37 37 78 92
48 48 40 3 7 12 19 21 20 12 8 12 9 7 15 11 3 25 12 5 5 17 12 10 32 18 18 19 10 11 16 19 16 6 5 5 8 20 29 26 31 41 41 59 77
44 40 29 7 5 14 23 16 7 3 5 6 5 13 15 13 18 6 3 2 2 6 11 13 12 14 19 17 18 23 24 16 5 6 9 6 9 5 32 25 36 50 52 70 83
41 32 15 2 10 20 22 13 8 10 1 7 9 6 8 7 3 13 4 5 3 2 2 12 11 8 10 10 8 21 8 10 10 8 4 6 8 4 30 49 30 38 58 74 90
31 13 10 5 6 18 18 17 9 5 16 10 7 8 10 9 6 11 9 2 6 6 6 12 10 9 12 8 11 6 13 7 7 5 11 5 7 15 37 27 41 51 78 74 80
12 11 18 17 13 18 22 9 16 14 11 10 11 7 11 8 8 6 6 10 11 6 4 5 12 16 14 8 6 9 14 11 12 6 5 10 7 11 21 36 72 82 90 79 81
5 7 9 15 12 15 14 11 2 9 12 18 15 13 17 15 10 4 15 20 17 15 9 8 9 5 20 8 3 14 1 13 8 6 8 7 15 18 22 13 34 60 65 80 88
13 7 11 16 13 9 10 12 8 11 14 11 13 13 15 18 13 15 12 17 8 22 12 10 8 8 13 17 21 14 9 7 6 4 5 7 5 11 18 26 16 10 45 76 91
8 7 30 11 4 5 7 3 17 44 40 18 13 13 10 9 9 10 15 8 17 14 30 10 6 15 9 11 8 14 12 10 1 7 10 5 10 3 8 13 6 16 40 90 84
11 8 43 6 13 2 7 7 19 23 34 15 18 17 10 14 12 10 8 5 23 13 9 7 7 6 10 8 10 8 12 11 8 15 2 9 9 5 14 11 30 40 64 37 90
11 12 53 22 8 9 12 24 34 20 16 10 17 14 11 10 9 17 12 37 36 14 9 10 8 8 20 13 17 12 14 8 5 3 3 9 8 9 18 27 45 60 86 19 69
11 8 23 45 43 10 11 19 10 33 27 27 13 26 15 16 12 10 17 21 31 27 24 12 7 9 6 4 10 16 28 16 8 4 15 10 16 20 22 22 36 63 82 58 29
16 5 11 6 17 19 19 8 18 11 17 34 14 20 9 11 12 10 13 14 19 34 16 9 4 8 6 13 21 25 27 24 14 9 4 19 24 11 16 15 27 54 65 65 52
11 10 14 34 12 25 14 10 7 5 9 7 11 12 13 9 4 6 10 9 6 18 11 12 3 8 4 8 18 24 29 23 24 18 10 20 21 12 16 43 50 36 43 53 74
19 15 6 21 10 9 3 3 3 6 14 19 13 7 10 6 23 26 26 21 18 5 5 1 5 6 4 7 10 14 9 6 16 15 7 9 12 18 18 28 41 44 35 31 32
Wind_Direction_500mb
343 341 340 341 343 343 343 337 332 327 323 322 315 307 307 306 297 289 269 227 197 172 171 183 190 182 173 207 196 209 262 239 308 210 237 154 83 15 302 178 160 201 164 154 155
341 339 338 336 336 337 338 336 328 324 318 315 314 307 305 309 305 287 274 203 182 184 179 178 179 168 192 222 212 199 200 228 189 161 198 164 139 114 228 193 184 131 151 154 157
339 338 337 336 333 332 331 331 327 322 317 313 311 311 305 316 317 1 334 194 180 182 191 191 170 178 211 236 217 229 233 235 203 167 146 141 126 142 173 232 205 156 155 162 160
337 336 335 334 331 330 328 327 324 321 317 313 308 304 304 312 275 34 39 132 187 187 191 189 193 185 201 217 239 276 265 250 251 186 154 151 135 183 180 166 181 162 160 165 161
335 333 332 330 328 326 326 324 320 318 314 306 307 303 306 292 264 218 340 300 207 205 204 189 193 189 197 206 238 239 256 262 263 213 147 141 202 248 206 129 172 173 165 167 169
332 331 329 327 324 321 322 320 317 318 310 304 290 290 281 276 140 349 331 325 230 210 203 195 197 205 251 238 219 251 260 268 281 141 157 160 164 73 200 137 166 173 175 173 176
331 330 328 324 322 317 317 316 315 319 312 312 307 277 257 250 168 224 289 319 270 230 203 200 200 233 317 326 254 252 277 292 270 149 154 130 90 274 226 167 167 174 175 182 175
330 328 326 323 319 314 312 308 308 310 298 314 337 286 255 158 226 231 246 273 257 268 226 210 213 257 259 275 304 5 70 338 299 105 165 155 186 231 191 182 168 178 178 186 185
330 327 325 322 317 310 310 306 304 300 279 290 276 303 267 200 244 133 209 228 233 224 220 218 218 250 271 285 7 15 255 313 313 283 161 227 132 178 155 164 165 176 179 180 188
331 326 325 324 318 309 315 311 300 272 269 268 228 307 252 211 183 193 218 222 184 191 217 227 219 250 353 84 210 269 319 318 246 313 24 116 133 149 151 169 166 168 176 184 192
334 331 328 325 318 306 40 57 11 68 294 238 274 275 319 150 191 164 133 215 207 181 164 192 111 211 245 189 193 231 246 288 288 281 255 193 157 180 171 163 168 175 173 186 194
338 336 333 328 314 269 25 59 27 340 297 284 267 266 271 279 330 244 173 162 144 183 182 348 227 229 236 228 247 266 251 273 285 256 272 153 192 176 187 191 177 194 179 184 188
339 337 337 332 48 124 30 56 1 354 296 292 242 240 247 224 223 191 177 203 213 176 186 171 240 230 244 267 234 249 214 252 250 303 358 108 133 185 213 206 213 244 199 185 191
341 336 340 33 96 32 47 16 13 324 58 281 185 214 178 157 344 169 152 100 25 196 204 206 242 220 226 246 214 271 229 245 269 44 265 91 195 204 203 209 237 235 223 207 198
341 335 341 334 357 37 7 7 356 352 63 167 123 160 173 164 134 65 137 274 104 302 75 264 248 234 228 221 220 240 258 242 236 83 348 55 95 266 179 219 212 217 203 202 201
341 332 336 19 36 17 351 356 340 53 197 141 136 166 93 207 207 143 113 143 247 284 262 237 251 204 210 240 216 240 223 21 56 99 354 150 127 213 177 211 217 219 211 196 195
342 339 341 250 31 359 339 354 58 69 326 1 163 148 174 212 171 150 143 52 125 61 356 334 301 289 15 348 346 98 72 12 347 0 216 143 62 227 211 195 201 206 216 207 193
8 111 71 70 37 11 359 49 54 26 357 337 352 129 147 178 16 71 59 20 51 149 90 58 333 15 352 41 338 280 148 153 192 203 263 334 225 258 210 202 203 203 212 211 209
137 88 56 33 45 12 352 52 28 360 337 344 349 41 16 9 56 74 97 16 34 23 91 46 284 319 43 342 65 303 113 181 121 141 81 243 298 324 17 328 205 201 203 210 215
64 72 25 36 39 36 60 39 71 38 9 23 40 35 34 0 46 34 30 345 18 23 70 343 340 355 321 17 36 93 283 343 18 180 191 277 232 238 40 31 16 272 239 231 220
45 353 17 31 279 46 112 104 64 36 33 31 359 36 84 21 36 45 4 51 29 341 65 31 73 298 33 48 353 351 2 359 183 148 151 167 260 205 76 98 191 280 347 237 223
50 33 5 22 41 101 61 26 77 22 33 30 46 61 59 19 29 71 70 41 24 47 41 331 125 307 259 260 266 165 62 73 53 311 239 140 271 89 86 13 16 1 349 300 219
32 5 30 87 60 17 49 77 75 50 26 24 30 43 34 51 69 34 33 16 47 47 41 338 15 7 336 12 16 31 21 63 245 339 259 120 255 117 14 41 28 9 6 327 198
48 28 36 53 56 115 98 40 62 35 37 53 62 51 36 30 20 39 16 4 24 34 48 59 72 122 209 230 284 319 333 357 95 19 331 262 338 3 5 15 22 34 30 39 80
47 37 41 356 22 58 65 49 50 21 13 33 41 49 56 24 21 22 6 352 8 28 20 87 63 36 316 346 335 319 321 333 310 218 222 298 316 340 352 359 24 59 44 40 37
70 23 22 50 47 55 29 358 61 27 50 35 82 28 44 71 90 320 25 27 295 356 33 0 281 348 355 27 3 316 307 306 295 294 266 301 300 348 13 44 29 29 55 36 39
62 43 77 45 33 69 342 302 299 77 16 61 103 84 12 337 323 303 291 273 260 295 332 336 110 40 286 12 1 306 292 336 313 317 300 316 290 331 14 61 35 18 22 57 39
Wind_Speed_850mb
39 39 38 37 36 35 35 35 30 30 29 26 25 28 29 29 25 31 31 17 31 15 32 29 22 30 21 22 28 11 5 4 1 3 4 15 9 17 14 26 26 13 57 86 88
43 42 40 40 38 36 36 34 32 30 30 31 28 28 29 30 31 38 20 26 38 24 28 28 28 39 17 17 13 20 8 12 16 20 9 24 19 22 9 32 22 16 62 83 84
43 42 43 42 40 39 37 35 31 31 31 28 28 25 26 25 28 8 5 23 36 31 24 24 21 26 22 25 19 14 13 17 24 11 28 28 23 37 16 20 28 68 71 83 73
43 42 42 42 44 42 38 37 32 30 30 25 24 24 22 16 5 7 11 5 18 24 27 30 34 12 13 14 31 9 28 35 40 28 35 22 20 11 23 9 40 90 98 91 74
44 43 43 42 42 42 40 36 32 32 29 22 20 17 15 9 14 4 8 7 21 29 33 39 34 20 8 18 39 17 38 46 50 43 50 37 11 7 22 21 42 63 72 83 70
47 47 45 44 42 41 38 33 31 33 25 19 16 15 11 7 2 2 11 7 9 29 37 44 32 36 13 31 18 25 32 38 33 54 54 41 21 6 15 31 62 63 68 71 55
49 50 48 47 43 41 37 30 29 26 17 14 10 11 15 19 6 6 13 14 3 12 35 47 42 10 8 16 36 36 14 17 10 43 28 49 13 13 22 26 61 67 65 60 68
49 51 52 48 45 40 34 26 24 24 14 9 5 6 13 6 15 25 18 23 18 13 19 35 34 28 22 22 19 7 8 9 13 8 42 19 17 19 33 52 66 67 64 52 71
52 53 50 47 42 36 28 23 19 17 10 6 5 11 13 10 8 7 17 18 17 16 12 14 15 18 15 5 10 13 2 9 17 13 39 15 11 20 17 48 68 71 71 64 62
52 51 49 42 37 31 17 19 15 15 10 8 12 13 6 8 14 10 9 18 26 16 20 15 12 3 7 8 6 5 6 8 9 12 4 9 17 26 57 34 40 59 35 57 62
50 48 46 39 29 22 8 8 7 5 15 17 9 18 16 10 5 8 8 16 11 19 7 11 7 8 16 11 12 7 4 15 27 23 9 13 36 45 36 50 48 52 68 72 62
47 47 46 37 19 8 8 14 13 12 17 30 39 44 35 26 6 12 14 8 6 8 6 7 8 15 11 12 14 13 11 19 23 10 6 17 28 43 40 47 66 74 85 81 78
49 49 44 25 3 6 6 11 18 17 5 25 23 25 25 21 6 19 22 5 4 9 11 11 18 16 15 14 15 13 11 15 21 21 1 29 11 23 23 27 45 37 37 78 92
48 48 40 3 7 12 19 21 20 12 8 12 9 7 15 11 3 25 12 5 5 17 12 10 32 18 18 19 10 11 16 19 16 6 5 5 8 20 29 26 31 41 41 59 77
44 40 29 7 5 14 23 16 7 3 5 6 5 13 15 13 18 6 3 2 2 6 11 13 12 14 19 17 18 23 24 16 5 6 9 6 9 5 32 25 36 50 52 70 83
41 32 15 2 10 20 22 13 8 10 1 7 9 6 8 7 3 13 4 5 3 2 2 12 11 8 10 10 8 21 8 10 10 8 4 6 8 4 30 49 30 38 58 74 90
31 13 10 5 6 18 18 17 9 5 16 10 7 8 10 9 6 11 9 2 6 6 6 12 10 9 12 8 11 6 13 7 7 5 11 5 7 15 37 27 41 51 78 74 80
12 11 18 17 13 18 22 9 16 14 11 10 11 7 11 8 8 6 6 10 11 6 4 5 12 16 14 8 6 9 14 11 12 6 5 10 7 11 21 36 72 82 90 79 81
5 7 9 15 12 15 14 11 2 9 12 18 15 13 17 15 10 4 15 20 17 15 9 8 9 5 20 8 3 14 1 13 8 6 8 7 15 18 22 13 34 60 65 80 88
13 7 11 16 13 9 10 12 8 11 14 11 13 13 15 18 13 15 12 17 8 22 12 10 8 8 13 17 21 14 9 7 6 4 5 7 5 11 18 26 16 10 45 76 91
8 7 30 11 4 5 7 3 17 44 40 18 13 13 10 9 9 10 15 8 17 14 30 10 6 15 9 11 8 14 12 10 1 7 10 5 10 3 8 13 6 16 40 90 84
11 8 43 6 13 2 7 7 19 23 34 15 18 17 10 14 12 10 8 5 23 13 9 7 7 6 10 8 10 8 12 11 8 15 2 9 9 5 14 11 30 40 64 37 90
11 12 53 22 8 9 12 24 34 20 16 10 17 14 11 10 9 17 12 37 36 14 9 10 8 8 20 13 17 12 14 8 5 3 3 9 8 9 18 27 45 60 86 19 69
11 8 23 45 43 10 11 19 10 33 27 27 13 26 15 16 12 10 17 21 31 27 24 12 7 9 6 4 10 16 28 16 8 4 15 10 16 20 22 22 36 63 82 58 29
16 5 11 6 17 19 19 8 18 11 17 34 14 20 9 11 12 10 13 14 19 34 16 9 4 8 6 13 21 25 27 24 14 9 4 19 24 11 16 15 27 54 65 65 52
11 10 14 34 12 25 14 10 7 5 9 7 11 12 13 9 4 6 10 9 6 18 11 12 3 8 4 8 18 24 29 23 24 18 10 20 21 12 16 43 50 36 43 53 74
19 15 6 21 10 9 3 3 3 6 14 19 13 7 10 6 23 26 26 21 18 5 5 1 5 6 4 7 10 14 9 6 16 15 7 9 12 18 18 28 41 44 35 31 32
Wind_Direction_850mb
343 341 340 341 343 343 343 337 332 327 323 322 315 307 307 306 297 289 269 227 197 172 171 183 190 182 173 207 196 209 262 239 308 210 237 154 83 15 302 178 160 201 164 154 155
341 339 338 336 336 337 338 336 328 324 318 315 314 307 305 309 305 287 274 203 182 184 179 178 179 168 192 222 212 199 200 228 189 161 198 164 139 114 228 193 184 131 151 154 157
339 338 337 336 333 332 331 331 327 322 317 313 311 311 305 316 317 1 334 194 180 182 191 191 170 178 211 236 217 229 233 235 203 167 146 141 126 142 173 232 205 156 155 162 160
337 336 335 334 331 330 328 327 324 321 317 313 308 304 304 312 275 34 39 132 187 187 191 189 193 185 201 217 239 276 265 250 251 186 154 151 135 183 180 166 181 162 160 165 161
335 333 332 330 328 326 326 324 320 318 314 306 307 303 306 292 264 218 340 300 207 205 204 189 193 189 197 206 238 239 256 262 263 213 147 141 202 248 206 129 172 173 165 167 169
332 331 329 327 324 321 322 320 317 318 310 304 290 290 281 276 140 349 331 325 230 210 203 195 197 205 251 238 219 251 260 268 281 141 157 160 164 73 200 137 166 173 175 173 176
331 330 328 324 322 317 317 316 315 319 312 312 307 277 257 250 168 224 289 319 270 230 203 200 200 233 317 326 254 252 277 292 270 149 154 130 90 274 226 167 167 174 175 182 175
330 328 326 323 319 314 312 308 308 310 298 314 337 286 255 158 226 231 246 273 257 268 226 210 213 257 259 275 304 5 70 338 299 105 165 155 186 231 191 182 168 178 178 186 185
330 327 325 322 317 310 310 306 304 300 279 290 276 303 267 200 244 133 209 228 233 224 220 218 218 250 271 285 7 15 255 313 313 283 161 227 132 178 155 164 165 176 179 180 188
331 326 325 324 318 309 315 311 300 272 269 268 228 307 252 211 183 193 218 222 184 191 217 227 219 250 353 84 210 269 319 318 246 313 24 116 133 149 151 169 166 168 176 184 192
334 331 328 325 318 306 40 57 11 68 294 238 274 275 319 150 191 164 133 215 207 181 164 192 111 211 245 189 193 231 246 288 288 281 255 193 157 180 171 163 168 175 173 186 194
338 336 333 328 314 269 25 59 27 340 297 284 267 266 271 279 330 244 173 162 144 183 182 348 227 229 236 228 247 266 251 273 285 256 272 153 192 176 187 191 177 194 179 184 188
339 337 337 332 48 124 30 56 1 354 296 292 242 240 247 224 223 191 177 203 213 176 186 171 240 230 244 267 234 249 214 252 250 303 358 108 133 185 213 206 213 244 199 185 191
341 336 340 33 96 32 47 16 13 324 58 281 185 214 178 157 344 169 152 100 25 196 204 206 242 220 226 246 214 271 229 245 269 44 265 91 195 204 203 209 237 235 223 207 198
341 335 341 334 357 37 7 7 356 352 63 167 123 160 173 164 134 65 137 274 104 302 75 264 248 234 228 221 220 240 258 242 236 83 348 55 95 266 179 219 212 217 203 202 201
341 332 336 19 36 17 351 356 340 53 197 141 136 166 93 207 207 143 113 143 247 284 262 237 251 204 210 240 216 240 223 21 56 99 354 150 127 213 177 211 217 219 211 196 195
342 339 341 250 31 359 339 354 58 69 326 1 163 148 174 212 171 150 143 52 125 61 356 334 301 289 15 348 346 98 72 12 347 0 216 143 62 227 211 195 201 206 216 207 193
8 111 71 70 37 11 359 49 54 26 357 337 352 129 147 178 16 71 59 20 51 149 90 58 333 15 352 41 338 280 148 153 192 203 263 334 225 258 210 202 203 203 212 211 209
137 88 56 33 45 12 352 52 28 360 337 344 349 41 16 9 56 74 97 16 34 23 91 46 284 319 43 342 65 303 113 181 121 141 81 243 298 324 17 328 205 201 203 210 215
64 72 25 36 39 36 60 39 71 38 9 23 40 35 34 0 46 34 30 345 18 23 70 343 340 355 321 17 36 93 283 343 18 180 191 277 232 238 40 31 16 272 239 231 220
45 353 17 31 279 46 112 104 64 36 33 31 359 36 84 21 36 45 4 51 29 341 65 31 73 298 33 48 353 351 2 359 183 148 151 167 260 205 76 98 191 280 347 237 223
50 33 5 22 41 101 61 26 77 22 33 30 46 61 59 19 29 71 70 41 24 47 41 331 125 307 259 260 266 165 62 73 53 311 239 140 271 89 86 13 16 1 349 300 219
32 5 30 87 60 17 49 77 75 50 26 24 30 43 34 51 69 34 33 16 47 47 41 338 15 7 336 12 16 31 21 63 245 339 259 120 255 117 14 41 28 9 6 327 198
48 28 36 53 56 115 98 40 62 35 37 53 62 51 36 30 20 39 16 4 24 34 48 59 72 122 209 230 284 319 333 357 95 19 331 262 338 3 5 15 22 34 30 39 80
47 37 41 356 22 58 65 49 50 21 13 33 41 49 56 24 21 22 6 352 8 28 20 87 63 36 316 346 335 319 321 333 310 218 222 298 316 340 352 359 24 59 44 40 37
70 23 22 50 47 55 29 358 61 27 50 35 82 28 44 71 90 320 25 27 295 356 33 0 281 348 355 27 3 316 307 306 295 294 266 301 300 348 13 44 29 29 55 36 39
62 43 77 45 33 69 342 302 299 77 16 61 103 84 12 337 323 303 291 273 260 295 332 336 110 40 286 12 1 306 292 336 313 317 300 316 290 331 14 61 35 18 22 57 39